Barnwell, SC

6:31 AM EST on December 11, 2019 (GMT -0500)
Barnwell County

Weather History for KBNL - August, 2019

Change the Weather History Date:

Saturday, August 31, 2019

  Actual Average (KOGB) Record (KOGB)
Temperature  
Mean Temperature 80 °F 78 °F  
Max Temperature 89 °F 88 °F 123 °F (2002)
Min Temperature 71 °F 69 °F 56 °F (1986)
Degree Days  
Heating Degree Days 0 0  
Month to date heating degree days 0  
Since 1 June heating degree days 1  
Since 1 July heating degree days 0  
Cooling Degree Days 15 13  
Month to date cooling degree days 471  
Year to date cooling degree days 1693  
Since 1 June cooling degree days 1390  
Growing Degree Days 30 (Base 50)    
Moisture  
Dew Point 69 °F    
Average Humidity 72    
Maximum Humidity 94    
Minimum Humidity 43    
Precipitation  
Precipitation 0.00 in 0.15 in 3.07 in (1952)
Month to date precipitation 5.28  
Year to date precipitation 33.31  
Sea Level Pressure  
Sea Level Pressure 30.11 in    
Wind  
Wind Speed 5 mph (ENE)    
Max Wind Speed 14 mph    
Max Gust Speed 20 mph    
Visibility 10 miles    
Events      
T = Trace of Precipitation, MM = Missing Value Source: NWS Daily Summary

Daily Weather History Graph

Daily Weather History Graph

Search for Another Location

Airport or City:

Astronomy

Aug. 31, 2019 Rise Set
Actual Time 6:59 AM EDT 7:52 PM EDT
Civil Twilight 6:33 AM EDT 8:17 PM EDT
Nautical Twilight 6:03 AM EDT 8:47 PM EDT
Astronomical Twilight 5:32 AM EDT 9:18 PM EDT
Moon 8:11 AM EDT (8/31) 9:08 PM EDT (8/31)
Length of Visible Light 13h 43m
Length of Day
12h 53m
New Moon, 2% of the Moon is Illuminated
Aug 31
New Moon
Sep 5
First Quarter
Sep 14
Full
Sep 21
Last Quarter
Sep 28
New

Hourly Weather History & Observations

Time (EDT) Temp. Heat Index Dew Point Humidity Pressure Visibility Wind Dir Wind Speed Gust Speed Precip Events Conditions
12:15 AM 73.4 °F - 69.8 °F 88% 30.13 in 10.0 mi Calm Calm - N/A   Clear
12:35 AM 73.4 °F - 69.8 °F 88% 30.12 in 10.0 mi Calm Calm - N/A   Clear
12:55 AM 73.4 °F - 69.8 °F 88% 30.12 in 10.0 mi Calm Calm - N/A   Clear
1:15 AM 73.4 °F - 69.8 °F 88% 30.12 in 10.0 mi Calm Calm - N/A   Clear
1:35 AM 73.4 °F - 69.8 °F 88% 30.12 in 10.0 mi NE 3.5 mph - N/A   Clear
1:55 AM 71.6 °F - 69.8 °F 94% 30.12 in 10.0 mi NE 4.6 mph - N/A   Clear
2:15 AM 73.4 °F - 69.8 °F 88% 30.12 in 10.0 mi NNE 4.6 mph - N/A   Clear
2:35 AM 73.4 °F - 69.8 °F 88% 30.11 in 10.0 mi NNE 4.6 mph - N/A   Clear
2:55 AM 73.4 °F - 69.8 °F 88% 30.11 in 10.0 mi NNE 5.8 mph - N/A   Clear
3:15 AM 73.4 °F - 69.8 °F 88% 30.11 in 10.0 mi NE 4.6 mph - N/A   Clear
3:35 AM 71.6 °F - 69.8 °F 94% 30.11 in 10.0 mi NE 3.5 mph - N/A   Clear
3:55 AM 71.6 °F - 69.8 °F 94% 30.11 in 10.0 mi NNE 5.8 mph - N/A   Partly Cloudy
4:15 AM 71.6 °F - 69.8 °F 94% 30.11 in 10.0 mi NE 4.6 mph - N/A   Scattered Clouds
4:35 AM 71.6 °F - 69.8 °F 94% 30.10 in 10.0 mi NE 5.8 mph - N/A   Mostly Cloudy
4:55 AM 73.4 °F - 71.6 °F 94% 30.11 in 10.0 mi NNE 5.8 mph - N/A   Mostly Cloudy
5:15 AM 73.4 °F - 71.6 °F 94% 30.11 in 10.0 mi NNE 5.8 mph - N/A   Overcast
5:35 AM 73.4 °F - 71.6 °F 94% 30.11 in 10.0 mi NNE 6.9 mph - N/A   Overcast
5:55 AM 71.6 °F - 69.8 °F 94% 30.11 in 10.0 mi NNE 6.9 mph - N/A   Overcast
6:15 AM 71.6 °F - 69.8 °F 94% 30.11 in 10.0 mi NNE 5.8 mph - N/A   Overcast
6:35 AM 71.6 °F - 69.8 °F 94% 30.11 in 10.0 mi NE 5.8 mph - N/A   Overcast
6:55 AM 71.6 °F - 69.8 °F 94% 30.12 in 10.0 mi NNE 5.8 mph - N/A   Overcast
7:15 AM 73.4 °F - 71.6 °F 94% 30.12 in 10.0 mi ENE 4.6 mph - N/A   Overcast
7:35 AM 73.4 °F - 71.6 °F 94% 30.12 in 10.0 mi NE 4.6 mph - N/A   Overcast
7:55 AM 73.4 °F - 71.6 °F 94% 30.12 in 10.0 mi NE 5.8 mph - N/A   Overcast
8:15 AM 77.0 °F - 71.6 °F 83% 30.13 in 10.0 mi ENE 5.8 mph - N/A   Scattered Clouds
8:35 AM 77.0 °F - 71.6 °F 83% 30.13 in 10.0 mi NE 5.8 mph - N/A   Clear
8:55 AM 78.8 °F - 71.6 °F 78% 30.13 in 10.0 mi ENE 8.1 mph - N/A   Clear
9:15 AM 80.6 °F 84.6 °F 71.6 °F 74% 30.12 in 10.0 mi NE 8.1 mph - N/A   Clear
9:35 AM 82.4 °F 87.2 °F 71.6 °F 70% 30.13 in 10.0 mi NE 8.1 mph - N/A   Clear
9:55 AM 82.4 °F 87.2 °F 71.6 °F 70% 30.13 in 10.0 mi ENE 8.1 mph - N/A   Clear
10:15 AM 84.2 °F 88.4 °F 69.8 °F 62% 30.13 in 10.0 mi NE 10.4 mph - N/A   Clear
10:35 AM 84.2 °F 88.4 °F 69.8 °F 62% 30.14 in 10.0 mi ENE 6.9 mph 13.8 mph N/A   Clear
10:55 AM 84.2 °F 88.4 °F 69.8 °F 62% 30.14 in 10.0 mi ENE 10.4 mph - N/A   Clear
11:35 AM 86.0 °F 89.4 °F 68.0 °F 55% 30.14 in 10.0 mi NE 12.7 mph - N/A   Clear
11:55 AM 86.0 °F 88.2 °F 66.2 °F 51% 30.14 in 10.0 mi East 11.5 mph - N/A   Clear
12:15 PM 87.8 °F 90.4 °F 66.2 °F 49% 30.13 in 10.0 mi ENE 12.7 mph 19.6 mph N/A   Partly Cloudy
12:35 PM 87.8 °F 90.4 °F 66.2 °F 49% 30.13 in 10.0 mi East 11.5 mph - N/A   Mostly Cloudy
12:55 PM 87.8 °F 91.4 °F 68.0 °F 52% 30.13 in 10.0 mi ENE 10.4 mph - N/A   Overcast
1:15 PM 87.8 °F 90.4 °F 66.2 °F 49% 30.12 in 10.0 mi ENE 12.7 mph - N/A   Overcast
1:35 PM 87.8 °F 90.4 °F 66.2 °F 49% 30.13 in 10.0 mi ENE 13.8 mph - N/A   Overcast
1:55 PM 87.8 °F 90.4 °F 66.2 °F 49% 30.12 in 10.0 mi ENE 10.4 mph - N/A   Overcast
2:15 PM 87.8 °F 90.4 °F 66.2 °F 49% 30.12 in 10.0 mi ENE 10.4 mph - N/A   Overcast
2:35 PM 87.8 °F 90.4 °F 66.2 °F 49% 30.11 in 10.0 mi East 11.5 mph - N/A   Overcast
3:15 PM 87.8 °F 90.4 °F 66.2 °F 49% 30.10 in 10.0 mi East 11.5 mph - N/A   Overcast
3:35 PM 89.6 °F 92.2 °F 66.2 °F 46% 30.09 in 10.0 mi ENE 12.7 mph - N/A   Overcast
3:55 PM 89.6 °F 91.1 °F 64.4 °F 43% 30.09 in 10.0 mi East 11.5 mph - N/A   Overcast
4:15 PM 89.6 °F 92.2 °F 66.2 °F 46% 30.09 in 10.0 mi NE 11.5 mph - N/A   Overcast
4:35 PM 87.8 °F 90.4 °F 66.2 °F 49% 30.09 in 10.0 mi ENE 11.5 mph - N/A   Overcast
4:55 PM 89.6 °F 91.1 °F 64.4 °F 43% 30.08 in 10.0 mi ENE 9.2 mph 15.0 mph N/A   Mostly Cloudy
5:15 PM 89.6 °F 92.2 °F 66.2 °F 46% 30.08 in 10.0 mi ENE 5.8 mph 12.7 mph N/A   Scattered Clouds
5:35 PM 89.6 °F 92.2 °F 66.2 °F 46% 30.08 in 10.0 mi East 8.1 mph - N/A   Partly Cloudy
5:55 PM 87.8 °F 89.4 °F 64.4 °F 46% 30.08 in 10.0 mi East 11.5 mph - N/A   Partly Cloudy
6:15 PM 87.8 °F 89.4 °F 64.4 °F 46% 30.08 in 10.0 mi East 6.9 mph - N/A   Clear
6:35 PM 87.8 °F 90.4 °F 66.2 °F 49% 30.08 in 10.0 mi East 6.9 mph 13.8 mph N/A   Clear
7:15 PM 86.0 °F 89.4 °F 68.0 °F 55% 30.09 in 10.0 mi East 5.8 mph - N/A   Clear
7:35 PM 84.2 °F 87.3 °F 68.0 °F 58% 30.09 in 10.0 mi East 5.8 mph - N/A   Clear
7:55 PM 82.4 °F 87.2 °F 71.6 °F 70% 30.10 in 10.0 mi ESE 9.2 mph - N/A   Clear
8:15 PM 82.4 °F 87.2 °F 71.6 °F 70% 30.10 in 10.0 mi ESE 9.2 mph - N/A   Scattered Clouds
8:35 PM 80.6 °F 84.6 °F 71.6 °F 74% 30.10 in 10.0 mi ESE 8.1 mph - N/A   Overcast
9:15 PM 80.6 °F 84.6 °F 71.6 °F 74% 30.11 in 10.0 mi ESE 6.9 mph - N/A   Mostly Cloudy
9:35 PM 80.6 °F 84.6 °F 71.6 °F 74% 30.12 in 10.0 mi ESE 4.6 mph - N/A   Mostly Cloudy
9:55 PM 78.8 °F - 71.6 °F 78% 30.13 in 10.0 mi Calm Calm - N/A   Overcast
10:15 PM 78.8 °F - 71.6 °F 78% 30.13 in 10.0 mi Calm Calm - N/A   Scattered Clouds
10:35 PM 77.0 °F - 71.6 °F 83% 30.13 in 10.0 mi Calm Calm - N/A   Clear
10:55 PM 77.0 °F - 71.6 °F 83% 30.13 in 10.0 mi Calm Calm - N/A   Clear
11:15 PM 77.0 °F - 71.6 °F 83% 30.13 in 10.0 mi ENE 4.6 mph - N/A   Clear
11:35 PM 77.0 °F - 71.6 °F 83% 30.13 in 10.0 mi Calm Calm - N/A   Clear
11:55 PM 77.0 °F - 71.6 °F 83% 30.13 in 10.0 mi ENE 3.5 mph - N/A   Partly Cloudy